Regional Weather Roundup
Issued by NWS New Orleans/Baton Rouge, LA

Home | Current Version | Previous Version | Text Only | Print | Product List | Glossary On
Versions: 1 2 3 4 5 6 7 8 9 10 11 12 13 14 15 16 17 18 19 20 21 22 23 24 25 26 27 28 29 30 31 32 33 34 35 36 37 38 39 40 41 42 43 44 45 46 47 48 49 50
197
ASUS44 KLIX 172310
RWRLIX
NEW ORLEANS REGIONAL WEATHER ROUNDUP
NATIONAL WEATHER SERVICE NEW ORLEANS LA
600 PM CDT THU APR 17 2014

NOTE: "FAIR" INDICATES FEW OR NO CLOUDS BELOW 12,000 FEET WITH NO
      SIGNIFICANT WEATHER AND/OR OBSTRUCTIONS TO VISIBILITY.
      SKY/WX - SKY CONDITION AND SIGNIFICANT WEATHER.
      TMP - AIR TEMPERATURE.     DP    - DEWPOINT TEMPERATURE.
      RH  - RELATIVE HUMIDITY.   PRES  - PRESSURE.
      HI  - HEAT INDEX.          WCI   - WIND CHILL INDEX.

*  THESE STATIONS ARE NOT NWS OR FAA STATIONS AND ARE NOT UNDER
   NWS QUALITY CONTROL.

LAZ038-040-048-061>063-065>067-069-180000-
SOUTHEAST LOUISIANA

CITY           SKY/WX    TMP DP  RH WIND       PRES   REMARKS
N.O. AUDUBON     N/A     64  31  29 MISG        N/A
N.O. INTL ARPT CLOUDY    64  60  87 E10       30.14S
N.O. LAKEFRONT CLOUDY    63  60  90 E15       30.15S
N.O. DOWNTOWN* CLOUDY    63  55  77 E7        30.15R
SLIDELL        CLOUDY    62  59  90 E7        30.13F
BATON ROUGE    CLOUDY    65  57  75 E8        30.13R
BOOTHVILLE     LGT RAIN  63  61  93 E10       30.13F FOG
BELLE CHASSE   CLOUDY    64  58  80 E10       30.13F
BOGALUSA*        N/A     67  57  70 E7        30.16S
GALLIANO*      LGT RAIN  65  63  91 NE8       30.12S
NEW ROADS*       N/A     65  56  74 E8        30.13S
GONZALES*      CLOUDY    64  60  88 E5        30.14R
HAMMOND*       CLOUDY    64  57  77 CALM      30.17R
HOUMA*         CLOUDY    64  61  88 NE9       30.12S HAZE
PORT FOURCHON* PTCLDY    66  64  94 E13       30.11F FOG

$$

MSZ070-080>082-180000-
SOUTHERN MISSISSIPPI

CITY           SKY/WX    TMP DP  RH WIND       PRES   REMARKS
MCCOMB         CLOUDY    63  55  75 E5        30.16R
GULFPORT       CLOUDY    68  58  70 E6        30.15S
BILOXI         CLOUDY    66  59  78 NE5       30.15F
PASCAGOULA     CLOUDY    67  58  72 CALM      30.16R
STENNIS ARPT*  CLOUDY    63  57  82 E7        30.15

$$

COASTAL OBSERVATIONS
LAKE AND NEARSHORE STATIONS

STATION/POSITION TIME  TEMP    WIND        PRES    WAVE
                       AIR SEA DIR/SP/G            HT/PER
                 (UTC) (F)     (DEG/KT/KT) (MB)    (FT/S)
PASCAGOULA       2300   67     110/  4/  7 1020.5
WAVELAND YACHT   2300   64 66   50/  7/  9 1020.1
GRAND ISLE       2300   65 67  100/  9/ 14 1020.3
SOUTHWEST PASS   2300   65 59   60/ 13/ 14 1020.5
NEW CANAL        2300   63 63   80/  9/ 14 1020.9
SHELL BEACH      2300   63 61   90/ 19/ 22 1019.4

OFFSHORE STATIONS

STATION/POSITION TIME  TEMP    WIND        PRES    WAVE
                       AIR SEA DIR/SP/G            HT/PER
                 (UTC) (F)     (DEG/KT/KT) (MB)    (FT/S)
64 S DAUPHIN ISL 2223   67 71   60/ 21/ 25 1019.8

$$




USA.gov is the U.S. government's official web portal to all federal, state and local government web resources and services.